Location: Aufkirchen
(47.9603°N, 11.3653°E)
Time: 16:29:02
(UTC+01:00)

Transit 2A - Pass Details

Date: 02 December 2020
Orbit: 599 x 960 km, 66.7° (Epoch: 26 January)

Event Time Altitude Azimuth Distance (km) Brightness Sun altitude
Rises 21:40:18 0° 315° (NW) 3,468 10.0 -51.4°
Enters shadow 21:41:48 - 323° (NW) 3,066 9.6 -51.6°
Reaches altitude 10° 21:45:09 10° 350° (N) 2,428 - -52.1°
Maximum altitude 21:46:39 11° 6° (N) 2,324 - -52.3°
Drops below altitude 10° 21:48:07 10° 21° (NNE) 2,360 - -52.5°
Sets 21:52:34 0° 58° (ENE) 3,177 - -53.2°
